TimeCEST,TemperatureF,Dew PointF,Humidity,Sea Level PressureIn,VisibilityMPH,Wind Direction,Wind SpeedMPH,Gust SpeedMPH,PrecipitationIn,Events,Conditions,WindDirDegrees,DateUTC
12:00 AM,46.4,41.0,81,29.98,-9999.0,WSW,4.6,-,N/A,,Clear,250,2013-05-13 22:00:00
12:30 AM,46.4,41.0,81,29.98,-9999.0,West,6.9,-,N/A,,Clear,280,2013-05-13 22:30:00
1:00 AM,46.4,41.0,81,29.98,-9999.0,Variable,2.3,-,N/A,,Clear,0,2013-05-13 23:00:00
1:30 AM,44.6,41.0,87,29.98,-9999.0,West,3.5,-,N/A,,Clear,270,2013-05-13 23:30:00
2:00 AM,43,39,82,30.01,22,West,4.5,,,,Clear,260,2013-05-14 00:00:00
2:01 AM,44.6,41.0,87,29.98,-9999.0,WSW,4.6,-,N/A,,Clear,250,2013-05-14 00:01:00
2:30 AM,44.6,39.2,81,29.98,-9999.0,West,3.5,-,N/A,,Clear,270,2013-05-14 00:30:00
3:00 AM,44.6,39.2,81,29.98,-9999.0,WSW,2.3,-,N/A,,Clear,250,2013-05-14 01:00:00
3:30 AM,42.8,39.2,87,29.98,-9999.0,West,3.5,-,N/A,,Clear,260,2013-05-14 01:30:00
4:00 AM,41.0,37.4,87,29.98,-9999.0,Variable,1.2,-,N/A,,Clear,0,2013-05-14 02:00:00
4:30 AM,42.8,39.2,87,29.98,-9999.0,Variable,2.3,-,N/A,,Clear,0,2013-05-14 02:30:00
5:00 AM,41.0,39.2,93,29.98,-9999.0,West,3.5,-,N/A,,Clear,260,2013-05-14 03:00:00
5:30 AM,41.0,39.2,93,29.98,-9999.0,Variable,2.3,-,N/A,,Clear,0,2013-05-14 03:30:00
6:00 AM,42.8,39.2,87,29.98,-9999.0,Variable,1.2,-,N/A,,Clear,0,2013-05-14 04:00:00
6:30 AM,44.6,41.0,87,29.98,-9999.0,NW,2.3,-,N/A,,Clear,310,2013-05-14 04:30:00
7:00 AM,44.6,41.0,87,29.98,-9999.0,West,6.9,-,N/A,,Clear,270,2013-05-14 05:00:00
7:30 AM,44.6,41.0,87,29.98,-9999.0,West,6.9,-,N/A,,Clear,280,2013-05-14 05:30:00
8:00 AM,47,43,79,30.01,9,West,4.5,,,,Scattered Clouds,280,2013-05-14 06:00:00
8:00 AM,46.4,42.8,87,29.98,-9999.0,West,3.5,-,N/A,,Clear,280,2013-05-14 06:00:00
8:30 AM,50.0,44.6,82,29.98,-9999.0,Calm,Calm,-,N/A,,Clear,0,2013-05-14 06:30:00
9:00 AM,53.6,44.6,72,29.98,-9999.0,Variable,1.2,-,N/A,,Clear,0,2013-05-14 07:00:00
9:30 AM,53.6,46.4,77,29.98,-9999.0,West,6.9,-,N/A,,Clear,260,2013-05-14 07:30:00
10:00 AM,55.4,46.4,72,29.98,-9999.0,West,3.5,-,N/A,,Clear,270,2013-05-14 08:00:00
10:30 AM,59.0,46.4,63,29.98,-9999.0,West,5.8,-,N/A,,Clear,270,2013-05-14 08:30:00
11:00 AM,59.0,46.4,63,29.98,6.2,WNW,5.8,-,N/A,,Mostly Cloudy,290,2013-05-14 09:00:00
11:30 AM,60.8,48.2,63,29.98,6.2,West,4.6,-,N/A,,Scattered Clouds,260,2013-05-14 09:30:00
12:00 PM,60.8,50.0,68,29.95,6.2,South,5.8,-,N/A,,Scattered Clouds,190,2013-05-14 10:00:00
12:30 PM,59.0,50.0,72,29.95,6.2,SW,9.2,-,N/A,,Scattered Clouds,220,2013-05-14 10:30:00
1:00 PM,59.0,50.0,72,29.95,-9999.0,SW,9.2,-,N/A,,Clear,220,2013-05-14 11:00:00
1:30 PM,60.8,50.0,68,29.95,-9999.0,SW,5.8,-,N/A,,Clear,220,2013-05-14 11:30:00
2:00 PM,63,48,48,29.94,22,ESE,2.2,,,,Partly Cloudy,110,2013-05-14 12:00:00
2:00 PM,62.6,50.0,63,29.95,-9999.0,Variable,1.2,-,N/A,,Clear,0,2013-05-14 12:00:00
2:30 PM,62.6,46.4,55,29.92,-9999.0,Variable,1.2,-,N/A,,Clear,0,2013-05-14 12:30:00
3:00 PM,62.6,46.4,55,29.92,-9999.0,Variable,2.3,-,N/A,,Clear,0,2013-05-14 13:00:00
3:30 PM,64.4,46.4,52,29.92,-9999.0,Variable,2.3,-,N/A,,Clear,0,2013-05-14 13:30:00
4:00 PM,64.4,48.2,56,29.92,-9999.0,Variable,2.3,-,N/A,,Clear,0,2013-05-14 14:00:00
4:30 PM,66.2,44.6,46,29.92,-9999.0,ENE,3.5,-,N/A,,Clear,70,2013-05-14 14:30:00
5:00 PM,64.4,44.6,49,29.89,-9999.0,ESE,4.6,-,N/A,,Clear,110,2013-05-14 15:00:00
5:30 PM,64.4,46.4,52,29.89,-9999.0,Variable,2.3,-,N/A,,Clear,0,2013-05-14 15:30:00
6:00 PM,64.4,46.4,52,29.89,-9999.0,Variable,3.5,-,N/A,,Clear,0,2013-05-14 16:00:00
6:30 PM,64.4,48.2,56,29.89,-9999.0,SE,4.6,-,N/A,,Clear,140,2013-05-14 16:30:00
7:00 PM,64.4,48.2,56,29.89,-9999.0,SE,4.6,-,N/A,,Clear,140,2013-05-14 17:00:00
7:30 PM,62.6,48.2,59,29.89,-9999.0,ESE,3.5,-,N/A,,Clear,120,2013-05-14 17:30:00
8:00 PM,61,47,50,29.88,28,East,4.5,,,,Scattered Clouds,90,2013-05-14 18:00:00
8:10 PM,60.8,46.4,59,29.89,-9999.0,East,3.5,-,N/A,,Clear,90,2013-05-14 18:10:00
8:30 PM,60.8,46.4,59,29.89,-9999.0,East,4.6,-,N/A,,Clear,90,2013-05-14 18:30:00
9:00 PM,60.8,48.2,63,29.89,-9999.0,ENE,4.6,-,N/A,,Clear,70,2013-05-14 19:00:00
9:30 PM,57.2,48.2,72,29.89,-9999.0,NE,6.9,-,N/A,,Clear,50,2013-05-14 19:30:00
10:00 PM,55.4,46.4,72,29.89,-9999.0,ENE,8.1,-,N/A,,Clear,60,2013-05-14 20:00:00
10:30 PM,55.4,44.6,67,29.89,-9999.0,ENE,6.9,-,N/A,,Clear,60,2013-05-14 20:30:00
11:00 PM,53.6,44.6,72,29.89,-9999.0,NE,8.1,-,N/A,,Clear,50,2013-05-14 21:00:00
11:30 PM,51.8,44.6,76,29.86,-9999.0,ENE,6.9,-,N/A,,Clear,60,2013-05-14 21:30:00